{"data":{"norad_id":48210,"epoch":"2026-05-25T02:46:01.862112Z","epoch_age_seconds":61002,"freshness":"FRESH","line1":"1 48210U 21031A   26145.11529933  .00000004  00000+0 -23011-4 0  9998","line2":"2 48210  87.8944 294.3005 0001708  97.7036 262.4288 13.14501861245281","mean_motion":13.14501861,"eccentricity":0.0001708,"inclination_deg":87.8944,"raan_deg":294.3005,"arg_perigee_deg":97.7036,"mean_anomaly_deg":262.4288,"bstar":-2.3011e-5,"rev_number":24528,"period_min":109.54720131811,"perigee_km":1204.498630898,"apogee_km":1207.0893017161,"semimajor_km":7583.9309663071,"source":"CELESTRAK","updated_at":"2026-05-25T13:38:22.395558Z"}}